www.pogodaiklimat.ru

Погода и климат >> Архив погоды >> Мексика >> Hidalgo del Parral


ПОГОДА в Hidalgo del Parral

  • Прогноз погоды в Hidalgo del Parral
  • Монитор погоды в Hidalgo del Parral
  • Климат города

АРХИВ ПОГОДЫ в Hidalgo del Parral

Время (UTC), дата Ветер
(напр.,м/с)
 
Видим.   Явления Облачность Т
(С)
Тd
(С)
f
(%)
Тe
(С)
Тes
(С)
Комфортность P
(гПа)
Po
(гПа)
Тmin
(С)
Tmax
(С)
R
(мм)
R24
(мм)
S
(см)
00 14.09 С 3 10 км 3/3 300 м
[Sc]
+28.2 +9.9 32 +28 +29 жарко 1011.3 827.0 +12.5 +29.0
03 14.09 СЗ 1 1000 м ясно +20.8 +13.2 62 +24 +24 комфорт 1010.3 827.4
12 14.09 С 1 1000 м 4/4 450 м
[Sc]
+13.4 +11.5 88 +14 +14 1014.8 826.9 +13.2
15 14.09 СЗ 1 10 км 1/0
[Cs]
+15.4 +10.6 73 +16 +21 1017.3 827.6
18 14.09 СЗ 2 10 км 5/5 1500 м
[Sc]
+26.5 +13.3 44 +28 +37 жарко 1017.5 828.6 +12.5 +26.8
21 14.09 СЗ 2 10 км 5/5 1500 м
[Sc]
+28.1 +12.8 39 +30 +36 жарко 1014.3 827.4
00 15.09 СВ 2 10 км 1/1 1000 м
[Cu med, cong]
+28.2 +12.4 38 +30 +31 жарко 1010.8 826.5 +12.5 +29.2
03 15.09 Ю 1 1000 м 1/0
[Ac trans]
+22.0 +14.3 62 +25 +25 комфорт 1010.1 827.2
12 15.09 СЗ 1 1000 м 4/4 300 м
[Sc]
+16.4 +13.7 84 +17 +17 1014.0 827.1 +16.3 +29.2
15 15.09 С 1 10 км 1/0
[Cs]
+19.2 +13.1 68 +22 +27 комфорт 1016.9 828.6
18 15.09 ЮЗ 2 10 км 5/5 1500 м
[Sc diur, vesp]
+26.6 +12.1 41 +28 +36 жарко 1016.1 828.7 +15.9 +27.0
21 15.09 С 3 10 км 5/5 1500 м
[Cb calv]
+28.2 +11.9 36 +29 +35 жарко 1012.4 826.8
00 16.09 С 4 10 км 1/1 360 м
[Cu med, cong]
+28.6 +10.0 31 +29 +30 жарко 1009.3 825.9 +15.9 +29.2
03 16.09 СВ 1 1000 м ясно +22.2 +12.3 53 +25 +25 комфорт 1009.6 827.0
12 16.09 Ю 1 1000 м ясно +14.4 +12.2 87 +15 +15 1014.9 827.2 +13.6 +29.2
15 16.09 С 1 10 км 3/3 540 м
[Cu hum]
+18.3 +13.4 73 +20 +23 1018.3 828.8
18 16.09 С 2 10 км 6/6 1500 м
[Cb calv]
+26.5 +13.6 45 +29 +35 жарко 1017.8 829.0 +12.9 +27.0
21 16.09 С 3 10 км 6/6 1500 м
[Cb calv]
+28.0 +12.8 39 +29 +34 жарко 1013.6 827.1
00 17.09 С 2 10 км 5/5 300 м
[Cb calv]
+27.6 +10.7 35 +28 +29 жарко 1009.5 825.5 +12.9 +29.4
03 17.09 С 2 1000 м 1/0
[Ac trans]
+22.2 +13.9 59 +25 +25 комфорт 1009.0 826.3
06 17.09 СЗ 2 1000 м 3/3 450 м
[Sc]
+19.6 +15.8 79 +22 +22 комфорт 1011.8 828.2 +29.4
09 17.09 СЗ 1 1000 м ясно +17.4 +15.0 86 +18 +18 1011.9 827.0
12 17.09 штиль 0 1000 м 1/1 270 м
[Sc diur, vesp]
+16.6 +14.6 88 +16 +16 1013.8 827.0 +16.2
15 17.09 СЗ 1 10 км 4/1 570 м
[Cu hum Ac trans]
+20.4 +15.5 73 +24 +28 комфорт 1016.2 828.1
18 17.09 СЗ 1 10 км 8/8 1170 м
[Sc]
+24.0 +14.6 56 +27 +31 жарко 1015.7 828.1 +16.1 +24.6
21 17.09 СВ 2 10 км 9/8 1200 м
[Sc Ac trans]
+25.8 +15.7 54 +29 +31 душно 1012.5 826.7
00 18.09 СВ 2 10 км слабый дождь 8/8 1000 м
[Sc diur, vesp]
+26.6 +15.7 51 +30 +30 душно 1008.5 825.0 0.0
03 18.09 ЮЗ 3 1000 м 8/8 900 м
[Sc diur, vesp]
+22.4 +15.1 63 +26 +26 жарко 1009.3 826.3
06 18.09 ЮЗ 1 1000 м слабый переохл. дождь (гололёд) 9/9 600 м
[Sc]
+20.8 +15.5 72 +25 +25 комфорт 1011.4 828.0 0.0
09 18.09 СЗ 1 1000 м 5/5 270 м
[Sc]
+19.7 +17.3 86 +23 +23 комфорт 1012.3 827.7
12 18.09 ЮЗ 1 1000 м 1/1 300 м
[Sc diur, vesp]
+18.4 +15.7 84 +20 +20 1013.3 827.3 +18.1 +28.8
15 18.09 С 1 10 км 4/0 2000 м
[Ac trans]
+21.6 +15.9 70 +25 +29 комфорт 1015.3 828.3
18 18.09 ЮЗ 2 10 км 8/6 1470 м
[Sc Ac trans]
+27.0 +15.1 48 +30 +34 душно 1014.2 827.8 +17.0 +28.8
21 18.09 СЗ 3 10 км 9/8 1350 м
[Sc Ac trans]
+27.2 +16.1 51 +31 +32 душно 1010.3 825.7
00 19.09 СВ 1 10 км гроза, ливневой дождь 10/10 600 м
[Cb cap]
+23.6 +18.6 74 +28 +28 душно 1006.8 823.8 1
03 19.09 СВ 1 1000 м гроза, ливневой дождь 10/10 90 м
[Cb cap]
+18.0 +17.1 94 +19 +19 1010.3 826.6 24
06 19.09 СЗ 2 1000 м слабый дождь 10/10 <50 м
[Sc]
+16.8 +15.9 94 +17 +17 1013.6 828.3 3
09 19.09 СЗ 2 1000 м слабый дождь 10/10 <50 м
[]
+16.4 +15.5 94 +16 +16 1014.0 827.0
12 19.09 СВ 1 1000 м {дождь} 8/8 100 м
[Sc diur, vesp]
+16.2 +15.2 94 +17 +17 1014.1 825.7 1
15 19.09 С 1 10 км слабый дождь 10/5 120 м
[Sc diur, vesp As op]
+17.2 +16.0 93 +18 +19 1016.5 827.4 0.0
18 19.09 ЮЗ 1 10 км в посл. час морось 10/10 600 м
[Sc]
+20.8 +15.2 70 +25 +25 комфорт 1016.0 827.4 0.1
21 19.09 ЮЗ 2 10 км 9/9 870 м
[Sc]
+23.2 +16.3 65 +28 +29 душно 1012.7 825.6
00 20.09 С 1 10 км слабый дождь 10/10 300 м
[Sc diur, vesp]
+20.8 +17.7 82 +26 +26 душно 1010.5 824.5 6
03 20.09 З 2 1000 м в посл. час ливневой дождь 9/8 180 м
[Sc diur, vesp Ac trans]
+18.0 +16.6 92 +19 +19 1011.5 825.5 4
15 20.09 ЮВ 5 9000 м слабый дождь 10/0 2000 м
[As op]
+16.4 +14.7 90 +15 +16 1015.4 826.8 0.5
18 20.09 СЗ 3 10 км в посл. час морось 9/5 1000 м
[Sc As op Cs]
+21.2 +12.0 56 +23 +27 комфорт 1014.6 826.4 0.5

 

Местоположение метеостанции Hidalgo del Parral (Мексика): широта 26.93 долгота -105.60 высота над уровнем моря 1661 м.

В архиве по умолчанию представлена погода в Hidalgo del Parral за последнюю неделю. Архивные данные за месяц целиком и за предыдущие месяцы, начиная с января 2011 года, Вы можете получить, выбрав интересующий диапазон дат из раскрывающегося списка и нажав кнопку "Ввод!".


*Определитесь, кто Вы:
робот инопланетянин человек

Внимание! Время в таблицах - всемирное. Для получения местного времени необходимо прибавить поправку, которая в Hidalgo del Parral равна -6 ч.

Смотрите также архив погоды в соседних городах и на ближайших метеорологических станциях:

Погода в Tepehuanes (Мексика) (177 км)
Погода в Chihuahua University (Мексика) (193 км)
Погода в Chihuahua (Мексика) (202 км)
Погода в Choix (Мексика) (259 км)
Погода в Torreon (Мексика) (269 км)
Погода в Culiacan (Мексика) (298 км)
Погода в Temosachic (Мексика) (312 км)
Погода в Durango (Мексика) (336 км)
Погода в Monclova (Мексика) (417 км)
Погода в Sombrerete (Мексика) (419 км)

Пояснения к столбцам:

Ветер - указаны скорость ветра в м/с - средняя за 10 мин, порывы в срок и между сроками (в фигурных скобках) и направление, откуда дует ветер: С - северный, СВ - северо-восточный, В - восточный, ЮВ - юго-восточный, Ю - южный, ЮЗ - юго-западный, З - западный, СЗ - северо-западный.
Видимость - горизонтальная дальность видимости в метрах или километрах. При видимости от 1 до 10 км при отсутствии осадков обычно наблюдается дымка, при ухудшении видимости до 1 км и менее - туман. В сухую погоду видимость может ухудшаться дымом, пылью или мглою.
Явления - указаны атмосферные явления, наблюдавшиеся в срок или в последний час перед сроком; фигурными скобками обозначены явления, наблюдавшиеся между сроками (за 1-3 часа до срока); квадратными скобками обозначены град или гололедные отложения с указанием их диаметра в мм.
Облачность - указаны через наклонную черту общая и нижняя облачность в баллах и высота нижней границы облаков в метрах; квадратными скобками обозначены формы облаков: Ci - перистые, Cs - перисто-слоистые, Cc - перисто-кучевые, Ac - высококучевые, As - высокослоистые, Sc - слоисто-кучевые, Ns - слоисто-дождевые, Cu - кучевые, Cb - кучево-дождевые. Подробнее классификацию облаков см. в Атласе облаков (PDF).
T - Температура воздуха - температура, измеренная на высоте 2 м над землей.
Td - Температура точки росы - температура, при понижении до которой содержащийся в воздухе водяной пар достигнет насыщения.
f - Относительная влажность воздуха - влажноcть воздуха, измеренная на высоте 2 м над землей.
Te - Эффективная температура - температура, которую ощущает одетый по сезону человек в тени. Характеристика душности погоды. При расчете учитывается влияние влажности воздуха и скорости ветра на теплоощущения человека.
Tes - Эффективная температура на солнце - температура, которую ощущает человек, с поправкой на солнечный нагрев. Характеристика знойности погоды. Зависит от высоты солнца над горизонтом, облачности и скорости ветра. Ночью, в пасмурную погоду, а также при ветре 12 м/с и более поправка равна нулю.
P - Атмосферное давление - приведенное к уровню моря атмосферное давление.
Po - Атмосферное давление - измеренное на уровне метеостанции атмосферное давление.
Tmin - Минимальная температура - минимум температуры воздуха на высоте 2 м над землей.
Tmax - Максимальная температура - максимум температуры воздуха на высоте 2 м над землей.
R - Количество осадков - Количество выпавших осадков за период времени, мм. При наведении курсора мыши на число - период времени, за который выпало указанное количество осадков.
R24 - Количество осадков - Количество выпавших осадков за 24 часа, мм.
S - Снежный покров - Высота снежного покрова, см. При наведении курсора мыши на число - состояние снежного покрова и степень покрытия местности в баллах.